Погода в Пахачах

Россия / Камчатский край     60°33′19″N   169°08′35″E
темп.,
°C
ветер,
м/с
пор.,
м/с
влажн.,
%
обл.,
%
осадки,
мм/ч
давл.,
гПа
погр.,
м
28 ноября, вс
вс2800:00−1в111795100 4.6 10091023
03:00−3в17228698 1.6 1012911
06:00−2в152276100 2.3 1011896
09:00−3в15217893 0.1 1011859
12:00−3в142179100 0.3 1011895
15:00−1в121873100 0.1 1010890
18:00−4всв81676100 0.1 1010585
21:00−4всв81682100 0.0 1011674
29 ноября, пн
пн2900:00−3в91578100 0.2 1011712
03:00−5всв71380100 0.0 1011502
06:00−5всв61180100 0.1 1012299
09:00−5всв6979100 0.0 1013268
12:00−5всв6878100 0.0 1013233
15:00−5всв687999 0.0 1013199
18:00−6всв6782100 0.0 1014154
21:00−6всв6784100 0.0 1014176
30 ноября, вт
вт3000:00−6всв6685100 0.1 1013174
03:00−6в6894100 0.3 1013202
06:00−6в7994100 0.9 1012262
09:00−5в71094100 0.7 1011323
12:00−4в81490100 1.6 1008574
15:00−1юв121897100 2.8 10051173
18:000юв162098100 7.6 10031299
21:00−2зюз6696100 8.3 1001416
1 декабря, ср
ср100:00−2юз2276100 11.4 1002492
03:00−4ссз5685100 0.1 1002391
06:00−5сз71272100 0.1 1003637
09:00−6сз71275100 0.0 1004540
12:00−6зсз6872100 0.0 1006460
15:00−7зсз912613 0.0 1009887
18:00−9зсз7117019 0.0 1012990
21:00−9зсз7118020 0.0 1014748
2 декабря, чт
чт200:00−14с449894 0.0 1017186
03:00−16с439894 0.0 1020125
06:00−16ссв3399100 0.0 1021117
09:00−13св4595100 0.0 1022147
12:00−11всв6781100 0.0 1020185
15:00−11всв91194100 0.2 1014216
18:00−6в142490100 1.9 1007841
21:00−3в152195100 13.1 1001616